Погода в Альбервиле

Франция     45°40′09″N   6°23′33″E
темп.,
°C
ветер,
м/с
пор.,
м/с
влажн.,
%
обл.,
%
осадки,
мм/ч
давл.,
гПа
погр.,
м
11 мая, вт
вт1123:00+6ю1295100 0.3 101162
02:00+4вюв229359 0.4 101120
05:00+5всв1195100 0.7 100931
08:00+5вюв1297100 7.9 1009326
11:00+5з1198100 1.0 1010278
14:00+5св229697 7.9 1011291
17:00+7з2394100 1.9 1010552
20:00+4зсз1299100 8.9 1015267
12 мая, ср
ср1223:00+3зсз2299100 3.5 1017294
02:00+3зсз1299100 4.6 1017414
05:00+2ссз1199100 0.8 1016303
08:00+2ссв019799 1.1 1016193
11:00+6зсз218277 0.1 1013780
14:00+6зсз1169100 0.1 1012982
17:00+7з117197 0.1 1011639
20:00+6зюз0076100 0.1 101122
13 мая, чт
чт1323:00+1в22895 0.0 101316
02:000вюв218992 0.0 101413
05:000в218997 0.0 101313
08:00+3зсз1185100 0.1 1012345
11:00+1з23100100 1.5 1013249
14:00+1зюз11100100 2.9 1014193
17:00+3с0198100 0.4 1013169
20:00+3всв119125 0.6 101253
14 мая, пт
пт1423:00−1в22935 0.0 101520
02:00−2в22905 0.0 101423
05:00−2в22905 0.0 101419
08:00+2вюв118032 0.0 1012130
11:00+8зсз126192 0.1 10101386
14:00+7с116696 0.2 1010939
17:00+8зсз2273100 1.3 1009982
20:00+4зсз2299100 4.2 1013463
15 мая, сб
сб1523:00+2св119995 2.5 1017128
02:00+1в119982 2.6 101753
05:00+1вюв229885 0.0 101775
08:00+3вюв1288100 0.0 1015120
11:00+7ююз2265100 0.0 1013635
14:00+8юз3460100 0.0 1012956
17:00+5ю2494100 1.1 1013579
20:00+4юв2398100 5.7 1014146